Find Starlink 31384

NORAD ID: 58983 Int'l Des: 2024-031 Owner: SPXS Country: US Constellation: starlink operational
LEOCIRCULAR

当前视图

正在加载3D地球...

About Starlink 31384

Starlink 31384 (NORAD 58983) is a starlink constellation satellite (v2 mini) launched Feb 15, 2024 by SPXS of US. It operates in LEO, CIRCULAR orbit with a mass of 730.00 kg.

关于 Starlink 31384

正在加载描述...

即将过境

Passes for default location (London). Set your location on the main map for personalized predictions.

高度历史

Loading altitude history...

两行轨道根数

1 58983U 24031U 26170.34350466 .00004218 00000-0 13583-3 0 9998
2 58983 53.1600 183.3296 0001057 75.9329 284.1791 15.34417439132098
Epoch: Jun 19, 2026 • Age: 15 hours

当前状态

高度 481.9 km
速度 7.62 km/s
星下点 -53.29°S, 167.87°W
发射日期 Feb 15, 2024
运行时间 2.3 years
类型 internet

技术详情

分类 Payload
质量 730.00 kg
干质量 700.00 kg
总质量 730.00 kg
长度 0.30 m
直径 4.10 m
跨度 29.00 m
形状 Box + pan
制造商 SPXS
平台类型 Starlink V2M
阶段状态 In Orbit
所有者/国家 SPXS/US

Most Searched